Powrót do katalogu

STARLINK-5170

AktywnyŁącznośćVLEO
NORAD 54062·PAYLOAD·🇺🇸 United States

Wystrzelony Oct 20, 2022 z Cape Canaveral Space Force Station

Loading…

Następne Przeloty (najbliższe 24 godziny)

TLE

ŚwieżeSource: CelesTrak SupGP

Epoka: Sep 15, 2026, 02:06 UTC

1 54062C 22136M   26258.08798611 -.00023856  00000+0 -68262-3 0  2584
2 54062  53.1576 202.9002 0001330  90.6075 290.6747 15.35405916    10

Śledź STARLINK-5170 w czasie rzeczywistym z AllMySat

Download on the App Store